Location: Essen
(51.4609°N, 7.0127°E)
Time: 10:39:27
(UTC+01:00)

ISS - Pass Details

Date: 11 January 2018
Orbit: 402 x 406 km, 51.6° (Epoch: 16 January)

Event Time Altitude Azimuth Distance (km) Brightness Sun altitude
Exits shadow 07:15:03 16° 259° (W) 1,174 -2.0 -11.6°
Maximum altitude 07:16:55 25° 212° (SSW) 855 -2.3 -11.4°
Drops below altitude 10° 07:19:41 10° 155° (SSE) 1,461 -0.3 -11.0°
Sets 07:21:58 0° 142° (SE) 2,318 1.2 -10.6°
